GSAT-31 (44035 NORAD) Tracking and Keplerian Element Data

This shows tracking and keplerian element data for the satellite.

Feedback or suggestion? Click here.




ElementValue
Catalog44035
NameGSAT-31
Epoch Orbit2196
Epoch Day35.12168817
Epoch Year2025
RAAN268.9934
Inclination0.0766
Eccentricity0.0005725
Argument of Perigee19.5398
Mean Anonmoly297.6513
Mean Motion1.0027108
Decay Rate1.29E-06
L11 44035U 19007B 25035.12168817 .00000129 00000+0 00000+0 0 9992
L22 44035 0.0766 268.9934 0005725 19.5398 297.6513 1.00271080 21962



Live tracking and technical data element details for GSAT-31 (NORAD 44035). GSAT-31 can be tracked NOW for your location showing map with azimuth and elevation plus other details from your city location.







IsCatalogInMostPopularTable: catalog: 44035, numindb: 340
Update: records affected: 1



GetName: 44035 GSAT-31

Hit Count: updated at: Sat, 17 May 2025 08:49:10 GMT